Regional Weather Roundup
Issued by NWS Charleston, WV

Home | Current Version | Previous Version | Text Only | Print | Product List | Glossary Off
Versions: 1 2 3 4 5 6 7 8 9 10 11 12 13 14 15 16 17 18 19 20 21 22 23 24 25 26 27

000
ASUS41 KRLX 230910
RWRRLX
West Virginia Regional Weather Roundup
National Weather Service Charleston WV
400 AM EST TUE JAN 23 2018

Note: "fair" indicates few or no clouds below 12,000 feet with no
significant weather and/or obstructions to visibility.

WVZ003-231000-
Northern Panhandle of West Virginia

CITY           SKY/WX    TMP DP  RH WIND       PRES   REMARKS
WHEELING         N/A    N/A N/A N/A MISG      29.61F
$$

WVZ009-231000-
Northwest West Virginia

CITY           SKY/WX    TMP DP  RH WIND       PRES   REMARKS
PARKERSBURG    NOT AVBL
$$

WVZ006-231000-
Western West Virginia

CITY           SKY/WX    TMP DP  RH WIND       PRES   REMARKS
HUNTINGTON       N/A     51  42  71 W9G20     29.67R
$$

WVZ015-231000-
West Central West Virginia

CITY           SKY/WX    TMP DP  RH WIND       PRES   REMARKS
CHARLESTON     CLOUDY    53  50  89 W7        29.65F
$$

WVZ022-031-231000-
North Central West Virginia

CITY           SKY/WX    TMP DP  RH WIND       PRES   REMARKS
CLARKSBURG     LGT RAIN  52  45  77 W12G29    29.65S
MORGANTOWN     LGT RAIN  51  44  77 SW5       29.67R
$$

WVZ025-035-042-045-231000-
Southern West Virginia

CITY           SKY/WX    TMP DP  RH WIND       PRES   REMARKS
BECKLEY          N/A     52  47  83 S9        29.66F
LOGAN          CLOUDY    55  50  82 SW8G14    29.66R
BLUEFIELD      MOCLDY    53  46  77 SW7       29.69F
LEWISBURG      RAIN      51  50  96 S8        29.70F
$$

WVZ047-231000-
Northern Mountains of West Virginia

CITY           SKY/WX    TMP DP  RH WIND       PRES   REMARKS
ELKINS         LGT RAIN  52  48  86 S7        29.66F
$$

WVZ052-231000-
Eastern Panhandle of West Virginia

CITY           SKY/WX    TMP DP  RH WIND       PRES   REMARKS
MARTINSBURG    LGT RAIN  51  48  89 VRB3      29.72F FOG
PETERSBURG     LGT RAIN  55  48  79 S8        29.68F
$$




USA.gov is the U.S. government's official web portal to all federal, state and local government web resources and services.